Flag for U.S.A. Weather past 2 weeks in Moreno Valley, California, U.S.A.

Now
48 °F

Clear.


Feels Like: 48 °F
Forecast: 48 / 79 °F
Wind: No wind

Location: Riverside / March Air Force Base

Current Time: Mar 31, 2015 at 3:26:03 AM

Latest Report: Mar 31, 2015 at 2:58 AM


Visibility: 10 mi

Pressure: 29.97 "Hg

Humidity: 77%

Dew point: 41 °F

Location of Moreno ValleyLocation

Historic Weather in Moreno Valley — Graph

°F

Moreno Valley temperature yesterday

Maximum temperature yesterday: 85 °F (at 1:58 PM)
Minimum temperature yesterday: 44 °F (at 5:58 AM)
Average temperature yesterday: 67 °F

Past Weeks' High & Low Weather Summary

 TemperatureHumidityPressure
High90 °F (Mar 27, 1:58 PM)100% (Mar 18, 6:58 AM)30.18 "Hg (Mar 18, 6:58 AM)
Low42 °F (Mar 20, 6:58 AM)10% (Mar 16, 3:58 PM)29.87 "Hg (Mar 16, 4:58 PM)
Average64 °F52%30.02 "Hg
* Reported Mar 16 1:58 AM — Mar 31 1:58 AM, Moreno Valley, Weather by CustomWeather, © 2015

Note: Actual official high and low records may vary slightly from our data, if they occured in-between our weather recording intervals... More about our weather records

Advertising

Moreno Valley weather history for previous 24 hours

 ConditionsComfort  
Time TempWeatherWind HumidityBarometerVisibility
1:58 AM
Tue, Mar 31
51 °FClear.2 mph82%29.98 "Hg10 mi
12:58 AM54 °FClear.5 mph75%30.02 "Hg10 mi
11:58 PM
Mon, Mar 30
56 °FClear.No wind66%30.02 "Hg10 mi
10:58 PM62 °FClear.2 mph48%29.99 "Hg10 mi
9:58 PM61 °FClear.2 mph52%29.99 "Hg10 mi
8:58 PM65 °FClear.3 mph44%29.99 "Hg10 mi
7:58 PM68 °FSunny.5 mph52%29.97 "Hg10 mi
6:58 PM74 °FSunny.10 mph42%29.94 "Hg10 mi
5:58 PM80 °FSunny.12 mph23%29.93 "Hg10 mi
4:58 PM83 °FSunny.14 mph23%29.93 "Hg10 mi
3:58 PM85 °FSunny.12 mph18%29.93 "Hg10 mi
2:58 PM85 °FSunny.12 mph24%29.94 "Hg10 mi
1:58 PM85 °FSunny.12 mph20%29.96 "Hg10 mi
12:55 PM84 °FSunny.10 mph16%30.01 "Hg10 mi
11:58 AM82 °FSunny.7 mph22%30.02 "Hg10 mi
10:58 AM78 °FSunny.5 mph21%30.00 "Hg10 mi
5:58 AM44 °FClear.No wind70%29.99 "Hg10 mi
4:58 AM45 °FClear.No wind70%29.98 "Hg10 mi
3:58 AM47 °FClear.No wind64%29.97 "Hg10 mi
Weather by CustomWeather, © 2015

See weather overviewHow to use our weather pages